AEZ2381 LIMZ-LIEE

Flight info

Callsign AEZ2381
Flight time 1h 1m
Altitude 39000
Route LAGEN DCT TORTU A9 CORSI DCT ORVEX DCT RAMEN DCT KOVAS
Aircraft B738/M-SDE2E3FGHIRWXY/LB1

Departure

Time 2026-05-05 08:16
Airport Cuneo International Airport (LIMZ)

Arrival

Time 2026-05-05 09:17
Airport Cagliari Elmas Airport (LIEE)
Time Latitude Longitude Altitude Speed Heading
2026-05-05 08:11 44.54694 7.61875 1256 ft 0 kts 340°
2026-05-05 08:12 44.54695 7.61874 1256 ft 0 kts 341°
2026-05-05 08:12 44.54697 7.61877 1256 ft 1 kts 16°
2026-05-05 08:12 44.54697 7.61902 1265 ft 5 kts 100°
2026-05-05 08:13 44.54670 7.61970 1256 ft 11 kts 121°
2026-05-05 08:13 44.54619 7.62085 1263 ft 16 kts 122°
2026-05-05 08:13 44.54638 7.62221 1261 ft 19 kts 40°
2026-05-05 08:13 44.54774 7.62343 1260 ft 27 kts 34°
2026-05-05 08:14 44.54956 7.62508 1250 ft 35 kts 32°
2026-05-05 08:14 44.55169 7.62694 1241 ft 36 kts 33°
2026-05-05 08:14 44.55381 7.62884 1232 ft 36 kts 32°
2026-05-05 08:14 44.55585 7.63064 1224 ft 23 kts 27°
2026-05-05 08:15 44.55670 7.63125 1222 ft 5 kts 127°
2026-05-05 08:15 44.55631 7.63105 1223 ft 10 kts 211°
2026-05-05 08:15 44.55386 7.62890 1232 ft 76 kts 212°
2026-05-05 08:15 44.54757 7.62329 1254 ft 135 kts 212°
2026-05-05 08:16 44.53871 7.61543 1598 ft 155 kts 213°
2026-05-05 08:16 44.52937 7.60737 2254 ft 162 kts 198°
2026-05-05 08:16 44.51830 7.60957 2805 ft 172 kts 140°
2026-05-05 08:16 44.51243 7.62395 3477 ft 175 kts 98°
2026-05-05 08:17 44.51383 7.64079 4131 ft 180 kts 63°
2026-05-05 08:17 44.51967 7.65681 4754 ft 193 kts 63°
2026-05-05 08:17 44.52555 7.67455 5279 ft 208 kts 64°
2026-05-05 08:17 44.53174 7.69356 5806 ft 220 kts 64°
2026-05-05 08:18 44.53830 7.71357 6447 ft 231 kts 65°
2026-05-05 08:18 44.54526 7.73450 7125 ft 240 kts 65°
2026-05-05 08:18 44.55239 7.75591 7904 ft 246 kts 66°
2026-05-05 08:18 44.55680 7.77936 8564 ft 251 kts 94°
2026-05-05 08:19 44.55271 7.80248 9487 ft 243 kts 124°
2026-05-05 08:19 44.54158 7.81982 10221 ft 240 kts 148°
2026-05-05 08:19 44.52788 7.83315 11007 ft 240 kts 149°
2026-05-05 08:19 44.51394 7.84693 11570 ft 255 kts 149°
2026-05-05 08:20 44.49884 7.86205 11902 ft 277 kts 148°
2026-05-05 08:20 44.48273 7.87830 12425 ft 291 kts 148°
2026-05-05 08:20 44.46608 7.89518 13125 ft 299 kts 148°
2026-05-05 08:20 44.44911 7.91242 13927 ft 303 kts 148°
2026-05-05 08:21 44.43156 7.92853 14669 ft 301 kts 160°
2026-05-05 08:21 44.41164 7.93707 15378 ft 302 kts 171°
2026-05-05 08:21 44.39036 7.94383 15560 ft 325 kts 171°
2026-05-05 08:21 44.36757 7.95078 15741 ft 347 kts 171°
2026-05-05 08:22 44.34316 7.95829 15951 ft 366 kts 171°
2026-05-05 08:22 44.31810 7.96619 16498 ft 373 kts 171°
2026-05-05 08:22 44.29268 7.97436 17217 ft 375 kts 171°
2026-05-05 08:22 44.26716 7.98268 17983 ft 377 kts 171°
2026-05-05 08:23 44.24193 7.99097 18644 ft 379 kts 170°
2026-05-05 08:23 44.21614 7.99947 19150 ft 384 kts 170°
2026-05-05 08:23 44.18999 8.00809 19727 ft 387 kts 170°
2026-05-05 08:23 44.16366 8.01677 20280 ft 390 kts 170°
2026-05-05 08:24 44.13710 8.02553 20816 ft 394 kts 171°
2026-05-05 08:24 44.11014 8.03440 21297 ft 400 kts 171°
2026-05-05 08:24 44.08289 8.04337 21819 ft 404 kts 171°
2026-05-05 08:24 44.05550 8.05238 22393 ft 407 kts 171°
2026-05-05 08:25 44.02778 8.06149 22933 ft 410 kts 171°
2026-05-05 08:25 43.99988 8.07065 23398 ft 414 kts 171°
2026-05-05 08:25 43.97174 8.07987 23818 ft 418 kts 171°
2026-05-05 08:25 43.94330 8.08918 24234 ft 420 kts 171°
2026-05-05 08:26 43.91468 8.09856 24652 ft 423 kts 171°
2026-05-05 08:26 43.88588 8.10797 25052 ft 426 kts 171°
2026-05-05 08:26 43.85699 8.11741 25448 ft 428 kts 171°
2026-05-05 08:26 43.82786 8.12691 25838 ft 431 kts 171°
2026-05-05 08:27 43.79901 8.13631 26221 ft 433 kts 172°
2026-05-05 08:27 43.76951 8.14591 26588 ft 436 kts 172°
2026-05-05 08:27 43.73985 8.15556 26954 ft 438 kts 172°
2026-05-05 08:27 43.71005 8.16524 27255 ft 442 kts 172°
2026-05-05 08:28 43.67992 8.17501 27579 ft 445 kts 172°
2026-05-05 08:28 43.64971 8.18481 27930 ft 447 kts 172°
2026-05-05 08:28 43.61933 8.19465 28278 ft 449 kts 172°
2026-05-05 08:28 43.58884 8.20452 28606 ft 451 kts 172°
2026-05-05 08:29 43.55817 8.21443 28910 ft 454 kts 172°
2026-05-05 08:29 43.52729 8.22441 29187 ft 457 kts 173°
2026-05-05 08:29 43.49668 8.23427 29472 ft 459 kts 173°
2026-05-05 08:30 43.43418 8.25444 30345 ft 456 kts 173°
2026-05-05 08:30 43.40369 8.26428 30779 ft 453 kts 173°
2026-05-05 08:30 43.37304 8.27414 31183 ft 452 kts 173°
2026-05-05 08:30 43.34247 8.28396 31550 ft 451 kts 173°
2026-05-05 08:31 43.31185 8.29377 31905 ft 450 kts 173°
2026-05-05 08:31 43.28146 8.30350 32323 ft 448 kts 173°
2026-05-05 08:31 43.25113 8.31321 32736 ft 446 kts 173°
2026-05-05 08:31 43.22095 8.32286 33144 ft 444 kts 174°
2026-05-05 08:32 43.19076 8.33249 33513 ft 443 kts 174°
2026-05-05 08:32 43.16077 8.34206 33897 ft 442 kts 174°
2026-05-05 08:32 43.13088 8.35157 34099 ft 444 kts 174°
2026-05-05 08:32 43.10063 8.36116 34239 ft 447 kts 174°
2026-05-05 08:33 43.07045 8.37074 34563 ft 445 kts 174°
2026-05-05 08:33 43.04037 8.38031 34920 ft 443 kts 173°
2026-05-05 08:33 43.01043 8.38983 35205 ft 442 kts 173°
2026-05-05 08:33 42.98042 8.39934 35427 ft 443 kts 173°
2026-05-05 08:34 42.95035 8.40886 35677 ft 443 kts 173°
2026-05-05 08:34 42.92037 8.41834 35965 ft 442 kts 173°
2026-05-05 08:34 42.89074 8.42771 36220 ft 441 kts 173°
2026-05-05 08:34 42.86082 8.43715 36457 ft 441 kts 173°
2026-05-05 08:35 42.83090 8.44659 36692 ft 441 kts 173°
2026-05-05 08:35 42.80109 8.45598 36960 ft 440 kts 173°
2026-05-05 08:35 42.77121 8.46539 37218 ft 440 kts 173°
2026-05-05 08:35 42.74134 8.47478 37445 ft 440 kts 173°
2026-05-05 08:36 42.71147 8.48416 37695 ft 440 kts 173°
2026-05-05 08:36 42.68170 8.49351 37936 ft 438 kts 173°
2026-05-05 08:36 42.65203 8.50282 38206 ft 437 kts 173°
2026-05-05 08:36 42.62232 8.51212 38413 ft 437 kts 173°
2026-05-05 08:37 42.59268 8.52139 38603 ft 438 kts 173°
2026-05-05 08:37 42.56302 8.53066 38780 ft 438 kts 173°
2026-05-05 08:37 42.53327 8.53995 38921 ft 438 kts 173°
2026-05-05 08:38 42.47393 8.55843 38964 ft 442 kts 173°
2026-05-05 08:38 42.41422 8.57704 38963 ft 439 kts 173°
2026-05-05 08:39 42.35495 8.59547 38975 ft 436 kts 173°
2026-05-05 08:39 42.29588 8.61379 38975 ft 434 kts 173°
2026-05-05 08:40 42.23703 8.63200 38976 ft 432 kts 173°
2026-05-05 08:40 42.17838 8.65010 39011 ft 432 kts 173°
2026-05-05 08:41 42.11975 8.66817 39016 ft 433 kts 173°
2026-05-05 08:41 42.06092 8.68626 38997 ft 434 kts 173°
2026-05-05 08:42 42.00204 8.70435 39011 ft 434 kts 173°
2026-05-05 08:42 41.94298 8.72241 38995 ft 435 kts 173°
2026-05-05 08:43 41.88423 8.74041 39013 ft 437 kts 173°
2026-05-05 08:43 41.82481 8.75859 39028 ft 439 kts 173°
2026-05-05 08:44 41.76499 8.77642 39006 ft 438 kts 176°
2026-05-05 08:44 41.70472 8.78636 39017 ft 437 kts 180°
2026-05-05 08:45 41.64412 8.79404 38990 ft 438 kts 180°
2026-05-05 08:45 41.58345 8.80206 39015 ft 438 kts 180°
2026-05-05 08:46 41.52287 8.81052 39014 ft 437 kts 179°
2026-05-05 08:46 41.46274 8.81909 39017 ft 436 kts 179°
2026-05-05 08:47 41.40238 8.82771 39009 ft 435 kts 180°
2026-05-05 08:47 41.34220 8.83627 39016 ft 434 kts 180°
2026-05-05 08:48 41.28215 8.84479 39017 ft 433 kts 180°
2026-05-05 08:48 41.22231 8.85326 39019 ft 432 kts 180°
2026-05-05 08:49 41.16247 8.86172 39016 ft 432 kts 180°
2026-05-05 08:49 41.10311 8.87009 39019 ft 431 kts 180°
2026-05-05 08:50 41.04342 8.87849 39025 ft 431 kts 180°
2026-05-05 08:50 40.98367 8.88688 39021 ft 432 kts 180°
2026-05-05 08:51 40.92380 8.89528 39029 ft 433 kts 180°
2026-05-05 08:51 40.86380 8.90367 39033 ft 434 kts 180°
2026-05-05 08:52 40.80358 8.91208 38715 ft 440 kts 180°
2026-05-05 08:52 40.77306 8.91631 38126 ft 440 kts 181°
2026-05-05 08:52 40.74274 8.92057 37572 ft 436 kts 181°
2026-05-05 08:52 40.71262 8.92479 36957 ft 434 kts 181°
2026-05-05 08:53 40.68265 8.92899 36367 ft 432 kts 181°
2026-05-05 08:53 40.65274 8.93315 35742 ft 432 kts 181°
2026-05-05 08:53 40.62325 8.93724 35084 ft 432 kts 181°
2026-05-05 08:53 40.59334 8.94138 34418 ft 433 kts 181°
2026-05-05 08:54 40.56330 8.94553 33689 ft 434 kts 181°
2026-05-05 08:54 40.53314 8.94970 32907 ft 435 kts 181°
2026-05-05 08:54 40.50308 8.95386 32181 ft 435 kts 181°
2026-05-05 08:54 40.47290 8.95803 31411 ft 436 kts 181°
2026-05-05 08:55 40.44277 8.96220 30651 ft 436 kts 181°
2026-05-05 08:55 40.41269 8.96636 30107 ft 431 kts 180°
2026-05-05 08:55 40.38297 8.97050 29451 ft 427 kts 180°
2026-05-05 08:55 40.35362 8.97458 28906 ft 422 kts 180°
2026-05-05 08:56 40.32453 8.97860 28342 ft 417 kts 180°
2026-05-05 08:56 40.30546 8.98123 27969 ft 415 kts 180°
2026-05-05 08:56 40.26730 8.98648 27234 ft 410 kts 180°
2026-05-05 08:56 40.24850 8.98906 26861 ft 408 kts 180°
2026-05-05 08:57 40.22044 8.99290 26320 ft 405 kts 180°
2026-05-05 08:57 40.19245 8.99673 25785 ft 403 kts 180°
2026-05-05 08:57 40.16466 9.00053 25242 ft 401 kts 180°
2026-05-05 08:57 40.12792 9.00554 24535 ft 399 kts 180°
2026-05-05 08:58 40.10025 9.00931 23938 ft 399 kts 181°
2026-05-05 08:58 40.07277 9.01307 23402 ft 396 kts 181°
2026-05-05 08:58 40.05422 9.01560 22991 ft 395 kts 180°
2026-05-05 08:58 40.02692 9.01933 22422 ft 393 kts 180°
2026-05-05 08:59 39.99976 9.02304 21876 ft 391 kts 180°
2026-05-05 08:59 39.97310 9.02667 21343 ft 389 kts 180°
2026-05-05 08:59 39.94601 9.03036 20805 ft 386 kts 179°
2026-05-05 08:59 39.91964 9.03394 20296 ft 384 kts 179°
2026-05-05 09:00 39.89313 9.03754 19768 ft 383 kts 179°
2026-05-05 09:00 39.86666 9.04113 19238 ft 381 kts 179°
2026-05-05 09:00 39.84035 9.04470 18731 ft 380 kts 179°
2026-05-05 09:00 39.81400 9.04827 18167 ft 380 kts 178°
2026-05-05 09:01 39.78777 9.05182 17584 ft 378 kts 178°
2026-05-05 09:01 39.76164 9.05537 17036 ft 375 kts 178°
2026-05-05 09:01 39.73579 9.05888 16500 ft 372 kts 178°
2026-05-05 09:01 39.71009 9.06235 15994 ft 369 kts 178°
2026-05-05 09:02 39.68461 9.06580 15485 ft 366 kts 178°
2026-05-05 09:02 39.65934 9.06921 14973 ft 363 kts 178°
2026-05-05 09:02 39.63477 9.07152 14571 ft 356 kts 183°
2026-05-05 09:02 39.60988 9.07113 14185 ft 349 kts 185°
2026-05-05 09:03 39.58569 9.07014 13722 ft 346 kts 185°
2026-05-05 09:03 39.56167 9.06909 13181 ft 344 kts 185°
2026-05-05 09:03 39.53816 9.06812 12666 ft 342 kts 185°
2026-05-05 09:03 39.51440 9.06724 12145 ft 340 kts 185°
2026-05-05 09:04 39.49080 9.06644 11642 ft 338 kts 185°
2026-05-05 09:04 39.46737 9.06569 11113 ft 337 kts 185°
2026-05-05 09:04 39.44412 9.06498 10838 ft 328 kts 185°
2026-05-05 09:04 39.42166 9.06432 10646 ft 318 kts 185°
2026-05-05 09:05 39.39990 9.06368 10498 ft 307 kts 185°
2026-05-05 09:05 39.37892 9.06306 10361 ft 297 kts 185°
2026-05-05 09:05 39.35864 9.06248 10221 ft 288 kts 185°
2026-05-05 09:05 39.33887 9.06186 10088 ft 279 kts 185°
2026-05-05 09:06 39.31965 9.06127 9913 ft 274 kts 185°
2026-05-05 09:06 39.30058 9.06068 9608 ft 272 kts 185°
2026-05-05 09:06 39.28169 9.06010 9308 ft 271 kts 185°
2026-05-05 09:06 39.26315 9.05955 9012 ft 269 kts 185°
2026-05-05 09:07 39.24423 9.05976 8704 ft 271 kts 175°
2026-05-05 09:07 39.22650 9.06762 8411 ft 274 kts 160°
2026-05-05 09:07 39.20915 9.07768 8092 ft 273 kts 159°
2026-05-05 09:07 39.19179 9.08775 7772 ft 273 kts 159°
2026-05-05 09:08 39.17452 9.09770 7483 ft 271 kts 159°
2026-05-05 09:08 39.15727 9.10758 7192 ft 270 kts 159°
2026-05-05 09:08 39.14014 9.11734 6908 ft 269 kts 159°
2026-05-05 09:08 39.12310 9.12702 6634 ft 267 kts 159°
2026-05-05 09:09 39.10610 9.13667 6336 ft 266 kts 159°
2026-05-05 09:09 39.08917 9.14625 6039 ft 265 kts 159°
2026-05-05 09:09 39.07238 9.15574 5757 ft 263 kts 159°
2026-05-05 09:09 39.05567 9.16518 5476 ft 261 kts 159°
2026-05-05 09:10 39.03910 9.17453 5205 ft 260 kts 159°
2026-05-05 09:10 39.02379 9.18661 4995 ft 259 kts 135°
2026-05-05 09:10 39.01491 9.20630 4878 ft 255 kts 107°
2026-05-05 09:10 39.01413 9.22867 4766 ft 250 kts 79°
2026-05-05 09:11 39.02098 9.24862 4651 ft 242 kts 51°
2026-05-05 09:11 39.03348 9.26216 4552 ft 232 kts 24°
2026-05-05 09:11 39.04856 9.26718 4466 ft 217 kts 359°
2026-05-05 09:11 39.06295 9.26473 4254 ft 208 kts 340°
2026-05-05 09:12 39.07573 9.25669 4051 ft 198 kts 322°
2026-05-05 09:12 39.08601 9.24634 4022 ft 181 kts 317°
2026-05-05 09:12 39.09545 9.23589 3814 ft 176 kts 316°
2026-05-05 09:12 39.10461 9.22536 3602 ft 177 kts 315°
2026-05-05 09:13 39.11376 9.21473 3373 ft 178 kts 315°
2026-05-05 09:13 39.12291 9.20406 3140 ft 176 kts 315°
2026-05-05 09:13 39.13197 9.19349 2901 ft 175 kts 316°
2026-05-05 09:13 39.14097 9.18298 2690 ft 176 kts 316°
2026-05-05 09:14 39.15014 9.17230 2449 ft 179 kts 315°
2026-05-05 09:14 39.15940 9.16154 2205 ft 179 kts 316°
2026-05-05 09:14 39.16853 9.15088 1963 ft 176 kts 315°
2026-05-05 09:14 39.17700 9.14099 1742 ft 171 kts 316°
2026-05-05 09:15 39.18573 9.13082 1524 ft 164 kts 315°
2026-05-05 09:15 39.19415 9.12101 1299 ft 163 kts 316°
2026-05-05 09:15 39.20230 9.11152 1089 ft 155 kts 316°
2026-05-05 09:15 39.21038 9.10209 884 ft 158 kts 316°
2026-05-05 09:16 39.21846 9.09266 680 ft 157 kts 316°
2026-05-05 09:16 39.22671 9.08308 487 ft 162 kts 316°
2026-05-05 09:16 39.23504 9.07336 279 ft 159 kts 315°
2026-05-05 09:16 39.24308 9.06399 28 ft 153 kts 316°
2026-05-05 09:17 39.24995 9.05603 16 ft 103 kts 318°
2026-05-05 09:17 39.25386 9.05145 14 ft 62 kts 318°
2026-05-05 09:17 39.25605 9.04895 16 ft 25 kts 321°
2026-05-05 09:17 39.25758 9.04885 16 ft 23 kts 46°
2026-05-05 09:18 39.25706 9.05054 14 ft 22 kts 139°
2026-05-05 09:18 39.25582 9.05200 14 ft 26 kts 137°
2026-05-05 09:18 39.25452 9.05353 15 ft 25 kts 133°
2026-05-05 09:18 39.25395 9.05542 14 ft 16 kts 99°
2026-05-05 09:19 39.25347 9.05666 14 ft 16 kts 106°
2026-05-05 09:19 39.25325 9.05774 14 ft 12 kts 112°
2026-05-05 09:19 39.25314 9.05807 15 ft 0 kts 112°